Regional Weather Roundup
Issued by NWS

Home | Current Version | Previous Version | Graphics & Text | Print | Product List | Glossary On
Versions: 1 2 3 4 5 6 7 8 9 10 11 12 13 14 15 16 17 18 19 20 21 22 23 24 25 26 27
000
ASUS45 KSLC 250510
RWRUT

UTAH REGIONAL WEATHER ROUNDUP
NATIONAL WEATHER SERVICE SALT LAKE CITY UT
1100 PM MDT SAT JUN 24 2017

UTZ001>011-023>025-250600-

NORTHERN UTAH

CITY           SKY/WX    TMP DP  RH WIND       PRES   REMARKS
BRIGHAM CITY   CLEAR     72  45  38 CALM      30.17S
HILL AFB       CLEAR     69  37  31 E7        30.19R
LOGAN          CLEAR     64  46  52 W7        30.19R
OGDEN          CLEAR     68  42  38 SE6       30.16R
SALT LAKE CITY CLEAR     74  39  28 S3        30.14R
TOOELE VALLEY  CLEAR     63  32  31 S8        30.16S
WENDOVER         N/A     74  28  18 NW6       30.16R
HEBER CITY     CLEAR     61  37  41 CALM      30.25R
WEST JORDAN    CLEAR     69  37  31 NW3       30.18S

$$

UTZ011>015-024>027-250600-

CENTRAL/NORTHEAST UTAH

CITY           SKY/WX    TMP DP  RH WIND       PRES   REMARKS
PROVO AIRPORT  CLEAR     68  45  43 SE3       30.17R
MOAB/CANYONLAN CLEAR     82  19   9 NE7       30.06R
DELTA          CLEAR     72  28  20 NE7       30.16R
PRICE          CLEAR     68  28  22 N9        30.22R
RICHFIELD      CLEAR     66  32  28 W2        30.21R
VERNAL         CLEAR     64  37  36 S7        30.20R

$$

UTZ013>016-019>022-027-250600-

SOUTHERN UTAH

CITY           SKY/WX    TMP DP  RH WIND       PRES   REMARKS
BRYCE CANYON   CLEAR     50  21  32 SW7       30.37R
CEDAR CITY     CLEAR     65  25  22 N5        30.18R
MILFORD        CLEAR     69  16  13 N10       30.16R
ST GEORGE      CLEAR     97  21   6 NE22G30   29.88R HX  90
HANKSVILLE     CLEAR     79  21  11 N10       30.09R
KANAB          CLEAR     79  27  14 N12       30.12R
BLANDING       CLEAR     63  23  22 N12       30.25R

$$

REGIONAL REPORTS     COLORADO/ARIZONA

CITY           SKY/WX    TMP DP  RH WIND       PRES   REMARKS
CRAIG, CO      CLEAR     53  41  63 CALM      30.31R
GRAND JUNCTION CLEAR     80  25  13 NE15G25   30.13R
RIFLE, CO      CLEAR     68  28  22 MISG      30.23R
MONTROSE, CO   CLEAR     68  34  28 S8        30.22R
CORTEZ, CO     CLEAR     59  25  27 NE6       30.19R
COLORADO CITY    N/A     86  23  10 NE10      30.09S
PAGE, AZ       CLEAR     87  33  14 CALM      30.01R
GRAND CANYON   PTCLDY    61  26  26 CALM      30.24R
KINGMAN, AZ    PTCLDY    85  26  11 SE6       29.93R
FLAGSTAFF, AZ  MOCLDY    68  31  25 NE6       30.28R

$$

REGIONAL REPORTS    NEVADA/IDAHO/WYOMING

CITY           SKY/WX    TMP DP  RH WIND       PRES   REMARKS
LAS VEGAS, NV  PTCLDY   103  19   5 SW10      29.79R HX  95
ELY, NY        CLEAR     69  22  16 NW6       30.25R
ELKO, NV       CLEAR     73  32  22 E5        30.20R
POCATELLO, ID  CLEAR     60  40  47 VRB3      30.21R
BURLEY, ID     CLEAR     60  46  59 SW6       30.16R
FORT BRIDGER,    N/A     60  31  33 W7        30.38S
EVANSTON, WY   CLEAR     63  35  35 N7        30.37R
ROCK SPRINGS,  CLEAR     62  26  25 S7        30.33R
KEMMERER, WY     N/A     57  36  44 N9        30.38S

$$




USA.gov is the U.S. government's official web portal to all federal, state and local government web resources and services.